Regional Weather Roundup
Issued by NWS

Home | Current Version | Previous Version | Graphics & Text | Print | Product List | Glossary On
Versions: 1 2 3 4 5 6 7 8 9 10 11 12 13 14 15 16 17 18 19 20 21 22 23 24 25 26 27 28 29 30 31 32 33 34 35 36 37 38 39 40 41 42 43 44 45 46 47 48 49 50
087
ASUS43 KLOT 282303
RWRIL

ILLINOIS REGIONAL WEATHER ROUNDUP
NATIONAL WEATHER SERVICE CHICAGO/ROMEOVILLE IL
600 PM CDT THU APR 28 2016

NOTE: "FAIR" INDICATES FEW OR NO CLOUDS BELOW 12,000 FEET WITH NO
SIGNIFICANT WEATHER AND/OR OBSTRUCTIONS TO VISIBILITY.

* THESE STATIONS ARE NOT UNDER NWS QUALITY CONTROL. THEY ALSO MAY NOT
  REPORT WEATHER SUCH AS PRECIPITATION OR FOG.

ILZ001-002-007-009-015-016-024-290000-
NORTHWEST ILLINOIS

CITY           SKY/WX    TMP DP  RH WIND       PRES   REMARKS
MOLINE         CLOUDY    57  46  66 W6        29.92R
STERLING*      CLOUDY    50  48  93 NE7       29.94R
$$

ILZ003-004-008-010-011-017-018-290000-
NORTH CENTRAL ILLINOIS

CITY           SKY/WX    TMP DP  RH WIND       PRES   REMARKS
ROCKFORD       LGT RAIN  47  41  80 E12       29.97R
FREEPORT*      CLOUDY    45  43  92 NE10      29.97R FOG
DE KALB*       CLOUDY    47  42  83 NE10      29.95R
$$

ILZ005-006-012>014-019>023-290000-
NORTHEAST ILLINOIS

CITY           SKY/WX    TMP DP  RH WIND       PRES   REMARKS
CHICAGO-OHARE  CLOUDY    45  40  82 NE10      29.94S
CHICAGO-MIDWAY CLOUDY    49  40  71 N10       29.94R
AURORA         CLOUDY    50  43  77 NE13      29.94R
LANSING*       CLOUDY    48  43  81 N7        29.94R
WAUKEGAN       CLOUDY    40  39  97 N9        29.97R FOG
DUPAGE AIRPORT CLOUDY    47  39  74 NE9       29.94R
WHEELING       CLOUDY    43  39  86 NE9       29.97R
NORTHERLY ISL    N/A     44  40  85 N8          N/A
NORTHERLY ISL    N/A     44  40  85 N8          N/A
$$

LMZ740>746-290000-
SOUTHERN LAKE MICHIGAN

STATION/POSITION SKY/WX   TEMP    WIND        PRES    VSBY  WAVE
                          AIR SEA DIR/SP/G                  HT/PER
                          (F)     (DEG/KT/KT) (MB)    (MI)  (FT/S)
SOUTHERN BUOY              40 40   60/ 12/ 14 1014.4          3/ 4
HARRISON CRIB              43      30/ 16/ 17   N/A
BURNHAM HARBOR             44     360/  6/ 12   N/A
CALUMET HARBOR             45                 1013.0R
BURNS HARBOR               46      20/ 10/ 12 1013.9R
MICHIGAN CITY              47     350/  9/ 10   N/A
ST. JOSEPH                 52 48  140/  6/  8   N/A           1/ 5
$$

ILZ025>027-034>036-040-047-049-050-058-095>099-290000-
WEST-CENTRAL ILLINOIS

CITY           SKY/WX    TMP DP  RH WIND       PRES   REMARKS
QUINCY         PTSUNNY   61  48  62 NW14      29.94R
MACOMB*        CLOUDY    58  49  71 W12       29.96R
$$

ILZ028>032-037-038-041>044-048-051>054-059>061-290000-
CENTRAL ILLINOIS

CITY           SKY/WX    TMP DP  RH WIND       PRES   REMARKS
BLOOMINGTON    PTSUNNY   61  49  64 W18       29.94R
DECATUR        PTSUNNY   65  49  56 NW15      29.92R
PEORIA         CLOUDY    58  46  64 W8        29.94R
SPRINGFIELD    PTSUNNY   64  50  60 W13       29.93R
TAYLORVILLE    NOT AVBL
$$

ILZ033-039-045-046-055>057-062-063-290000-
EAST-CENTRAL ILLINOIS

CITY           SKY/WX    TMP DP  RH WIND       PRES   REMARKS
CHAMPAIGN      CLOUDY    65  51  60 W17       29.90R
MATTOON        SUNNY     66  50  56 W14G22    29.91R
$$

ILZ079-100>102-290000-
SOUTHWEST ILLINOIS

CITY           SKY/WX    TMP DP  RH WIND       PRES   REMARKS
BELLEVILLE     SUNNY     73  50  43 W6        29.90R
CAHOKIA*       LGT RAIN  73  47  39 W8        29.92R
SPARTA*        SUNNY     73  51  45 W6        29.93R
$$

ILZ064>066-069>071-074>076-080>082-084>086-088>090-092>094-290000-
SOUTH-CENTRAL ILLINOIS

CITY           SKY/WX    TMP DP  RH WIND       PRES   REMARKS
CARBONDALE     MOSUNNY   76  48  37 W8        29.90R
MARION         MOSUNNY   77  48  36 SW8       29.91R
MT. VERNON     SUNNY     73  52  46 W5        29.92R
SALEM*         SUNNY     71  53  53 NW8       29.92R
$$

ILZ067-068-072-073-078-083-087-091-290000-
SOUTHEAST ILLINOIS

CITY           SKY/WX    TMP DP  RH WIND       PRES   REMARKS
LAWRENCEVILLE  SUNNY     72  52  49 NW17      29.89R
FLORA*         MOSUNNY   71  53  53 W9        29.92R
HARRISBURG*    SUNNY     76  51  41 W9        29.91R
ROBINSON*      MOSUNNY   70  53  54 W15       29.90R
$$

ABBREVIATIONS USED IN REMARKS
   TC - TEMPERATURE IN CELSIUS
  WCI - WIND CHILL INDEX
   HX - HEAT INDEX
  VSB - VISIBILITY
$$





USA.gov is the U.S. government's official web portal to all federal, state and local government web resources and services.